• Processing (Info)

  • MPEC 2023-J63 : S/2019 S 11

    The following Minor Planet Electronic Circular may be linked-to from your own Web pages, but must not otherwise be redistributed electronically.

    A form allowing access to any MPEC is at the bottom of this page.


    Read MPEC 2023-J62 Read MPEC 2023-J64


    M.P.E.C. 2023-J63                                   Issued 2023 May 8, 20:34 UT
    
         The Minor Planet Electronic Circulars contain information on unusual
             minor planets, routine data on comets and natural satellites,
             and occasional editorial announcements.  They are published
        on behalf of Division F of the International Astronomical Union by the
              Minor Planet Center, Smithsonian Astrophysical Observatory,
                              Cambridge, MA 02138, U.S.A.
    			  
                 Prepared using the Tamkin Foundation Computer Network
    
                                  MPC@CFA.HARVARD.EDU
                URL https://www.minorplanetcenter.net/    ISSN 1523-6714
    
                                   S/2019 S 11                               
                               Satellite of Saturn                           
    
    
    Observations:
        SK19S110 5C2005 01 05.59417 07 49 17.584+21 18 14.79         25.5 RcEJ063568
        SK19S110 5C2005 01 05.61650 07 49 17.097+21 18 15.85               cEJ063568
        SK19S110 5C2007 03 21.24231 09 23 08.557+16 15 31.04         25   R EJ063568
        SK19S110 5C2007 03 21.26328 09 23 08.325+16 15 32.41                EJ063568
        SK19S110 5C2007 03 21.28786 09 23 08.033+16 15 33.83                EJ063568
        SK19S110*RC2019 07 01.38103 19 18 30.88 -22 03 54.1                cEJ063568
        SK19S110 RC2019 07 01.44688 19 18 29.59 -22 03 55.8                cEJ063568
        SK19S110 RC2019 07 02.38620 19 18 11.70 -22 04 22.3          26.1 wcEJ063568
        SK19S110 RC2019 07 02.41195 19 18 11.18 -22 04 22.9                cEJ063568
        SK19S110 RC2019 07 02.46981 19 18 10.06 -22 04 24.4          26.2 wcEJ063568
        SK19S110 RC2020 06 27.45932 20 06 11.95 -20 40 16.0                cEJ063568
        SK19S110 RC2020 06 27.52228 20 06 10.93 -20 40 19.9                cEJ063568
        SK19S110 RC2020 06 28.44303 20 05 56.20 -20 41 17.1          26.1 wcEJ063568
        SK19S110 RC2020 06 28.50594 20 05 55.17 -20 41 20.9          26.1 wcEJ063568
        SK19S110 RC2020 07 20.37189 19 59 29.62 -21 04 57.2                cEJ063568
        SK19S110 RC2020 07 20.46628 19 59 27.84 -21 05 03.4                cEJ063568
        SK19S110 RC2020 08 16.37625 19 51 41.78 -21 31 36.2                cEJ063568
        SK19S110 RC2020 08 16.40484 19 51 41.33 -21 31 37.6                cEJ063568
    
    Observer details:
    568 Maunakea.  Observers S. S. Sheppard, D. C. Jewitt, E. J. Ashton, B. J.
        Gladman, J.-M. Petit, M. Alexandersen.  Measurers S. S. Sheppard, E. J.
        Ashton, M. Beaudoin, B. J. Gladman.  8.3-m Subaru Telescope + CCD, 8.2-m
        reflector + CCD, 3.5-m Canada-France-Hawaii Telescope + CCD.
    
    Orbital elements:
        S/2019 S 11                                                                 
    Epoch 2023 Feb. 25.0 TT = JDT 2460000.5                 Alexandersen            
    M  29.75706              (2000.0)            P               Q                  
    n   0.32806806     Peri.   72.51073     +0.38924699     -0.91958486             
    a   0.1371590      Node     6.25084     -0.91412374     -0.39277239             
    e   0.5767479      Incl.  150.63658     +0.11342206     -0.00967123             
    P   3.00           H   16.2           P/d  1097.33                              
    From 18 observations 2005 Jan. 05-2020 Aug. 16, mean residual 0".08             
    
    Residuals in seconds of arc
    050105 568  0.2+  0.1+    190701 568  0.1-  0.0     200628 568  0.2-  0.2-
    050105 568  0.3-  0.0     190702 568  0.0   0.2-    200628 568  0.1-  0.1-
    070321 568  0.0   0.1+    190702 568  0.2-  0.0     200720 568  0.1-  0.2+
    070321 568  0.1+  0.2+    190702 568  0.1-  0.1+    200720 568  0.1-  0.2+
    070321 568  0.1-  0.0     200627 568  0.2-  0.0     200816 568  0.4+  0.1-
    190701 568  0.1+  0.2-    200627 568  0.1-  0.0     200816 568  0.3+  0.1-
    
    
    M. P. C. Staff               (C) Copyright 2023 MPC           M.P.E.C. 2023-J63
    


    Read MPEC 2023-J62 Read MPEC 2023-J64


    MPEC number:

    Enter an MPEC number in one of the following forms:

    • 1997-B01 (the full form)
    • J97B01 (the packed version of the full form)
    • B01 (the abbreviated form)